Regional Weather Roundup
Issued by NWS

Home | Current Version | Previous Version | Graphics & Text | Print | Product List | Glossary On
Versions: 1 2 3 4 5 6 7 8 9 10 11 12 13 14 15 16 17 18 19 20 21 22 23 24 25 26 27 28 29 30 31 32 33 34 35 36 37 38 39 40 41 42 43 44 45 46 47 48 49 50
000
ASUS43 KMKX 180000
RWRWI

WISCONSIN REGIONAL WEATHER ROUNDUP
NATIONAL WEATHER SERVICE MILWAUKEE/SULLIVAN WI
700 PM CDT FRI APR 17 2015

NOTE: "FAIR" INDICATES FEW OR NO CLOUDS BELOW 12,000 FEET WITH NO
SIGNIFICANT WEATHER AND/OR OBSTRUCTIONS TO VISIBILITY.

WIZ001-002-006>008-014>016-023>028-180100-
NORTHWEST WISCONSIN

CITY           SKY/WX    TMP DP  RH WIND       PRES   REMARKS
SUPERIOR ARPT  CLEAR     71  25  17 NW14      29.96R
ASHLAND        CLEAR     70  27  20 W6        29.96S
6HR MIN TEMP:  67; 6HR MAX TEMP:  73;

HAYWARD        CLEAR     71  20  14 VRB6      29.98S
6HR MIN TEMP:  67; 6HR MAX TEMP:  73;

SIREN          CLEAR     70  17  13 NW15      30.00S
CUMBERLAND     CLEAR     68  27  21 W10       30.00F
RICE LAKE      CLEAR     71  30  22 W10       30.01S
CHETEK         CLEAR     71  33  24 W6        30.00S
LADYSMITH      CLEAR     72  33  24 W10       30.00S
EAU CLAIRE     CLEAR     71  36  27 NW9       29.99S
6HR MIN TEMP:  71; 6HR MAX TEMP:  76;

MENOMONIE      CLEAR     73  33  23 W10       30.00S
NEW RICHMOND   CLEAR     71  27  19 NW7       30.02S
OSCEOLA        PTCLDY    72  31  22 NW8       30.03S
$$

WIZ003>005-009-010-017-018-180100-
NORTH CENTRAL WISCONSIN

CITY           SKY/WX    TMP DP  RH WIND       PRES   REMARKS
MANITOWISH WTR CLEAR     69  26  19 W9        29.97S
ARBOR VITAE    CLEAR     72  24  17 W8        29.97R
WOODRUFF       CLEAR     72  24  17 W8        29.97R
RHINELANDER    CLEAR     70  29  21 W10       29.97S
6HR MIN TEMP:  68; 6HR MAX TEMP:  74;

EAGLE RIVER    CLEAR     69  21  16 NW9       29.96S
LAND O LAKES   CLEAR     68  24  19 N6        29.97S
PHILLIPS       CLEAR     70  30  23 W7        29.97S
TOMAHAWK       CLEAR     71  33  25 CALM      29.97S
MEDFORD        CLEAR     69  40  34 W6        29.98S
MERRILL        CLEAR     72  39  30 W10       29.96S
$$

WIZ029-030-035-036-043>047-180100-
CENTRAL WISCONSIN

CITY           SKY/WX    TMP DP  RH WIND       PRES   REMARKS
WAUSAU         CLEAR     70  40  33 W10       29.95F
6HR MIN TEMP:  70; 6HR MAX TEMP:  75;

MOSINEE        NOT AVBL
MARSHFIELD     CLEAR     71  42  35 W8        29.98S
6HR MIN TEMP:  71; 6HR MAX TEMP:  76;

STEVENS POINT  CLEAR     72  42  34 W7        29.97F
WAUPACA        PTCLDY    76  38  25 W6        29.96S
WAUTOMA        NOT AVBL
WISC RAPIDS    CLEAR     74  37  26 NW7       29.98S
6HR MIN TEMP:  74; 6HR MAX TEMP:  78;

CAMP DOUGLAS   NOT AVBL
$$

WIZ011>013-019>022-031-037>040-048>050-180100-
NORTHEAST WISCONSIN

CITY           SKY/WX    TMP DP  RH WIND       PRES   REMARKS
ANTIGO         PTCLDY    69  42  38 W17       29.96S
SHAWANO        PTCLDY    74  40  29 SW8       29.94S
OCONTO         CLEAR     61  40  47 SE8       29.95F
STURGEON BAY   CLEAR     55  37  50 SE9       29.99F
6HR MIN TEMP:  55; 6HR MAX TEMP:  61;

GREEN BAY      CLEAR     67  44  43 S13       29.96S
6HR MIN TEMP:  67; 6HR MAX TEMP:  75;

MANITOWOC      NOT AVBL
APPLETON       PTCLDY    68  43  40 S10       29.97S
CLINTONVILLE   PTCLDY    73  37  27 W9        29.94S
OSHKOSH        PTCLDY    68  46  45 SE7       29.96F
6HR MIN TEMP:  68; 6HR MAX TEMP:  73;

$$

WIZ032>034-041-042-053>061-180100-
SOUTHWEST WISCONSIN

CITY           SKY/WX    TMP DP  RH WIND       PRES   REMARKS
LA CROSSE      CLEAR     76  45  33 NW6       29.97S
6HR MIN TEMP:  76; 6HR MAX TEMP:  81;

SPARTA         PTCLDY    75  38  25 W7        29.99R
VIROQUA        CLEAR     72  42  33 NW9       30.00S
BOSCOBEL       PTCLDY    76  43  30 NW5       29.97F
6HR MIN TEMP:  76; 6HR MAX TEMP:  81;

PRAIRIE DU CHI PTCLDY    76  41  28 W6        29.97S
PLATTEVILLE    MOCLDY    76  45  33 W6        29.99S
$$

WIZ056-057-062-063-064-067-068-180100-
SOUTH CENTRAL WISCONSIN

CITY           SKY/WX    TMP DP  RH WIND       PRES   REMARKS
REEDSBURG      CLEAR     74  44  33 W7        29.97S
BARABOO/DELLS  CLEAR     74  39  27 W8        29.97F
LONE ROCK      NOT AVBL
MINERAL POINT  PTCLDY    75  41  29 NW3       29.99F
MADISON        PTCLDY    76  43  30 NW3       29.97S
6HR MIN TEMP:  75; 6HR MAX TEMP:  79;

MIDDLETON      CLEAR     75  39  27 W6        29.98S
WATERTOWN      MOCLDY    74  46  36 NW3       29.97S
MONROE         CLEAR     73  45  35 W8        29.98F
JANESVILLE     PTCLDY    75  43  31 W6        29.97F
$$

WIZ051-052-058>065-066-070>072-180100-
SOUTHEAST WISCONSIN

CITY           SKY/WX    TMP DP  RH WIND       PRES   REMARKS
MILWAUKEE      MOCLDY    54  40  59 E5        30.00F HAZE
6HR MIN TEMP:  54; 6HR MAX TEMP:  64;

WAUKESHA       PTCLDY    63  41  45 E12       30.00F
MILWAUKEE/TIMM PTCLDY    64  34  32 SE7       30.01S
RACINE         MOCLDY    54  41  61 NE5       30.02F
6HR MIN TEMP:  54; 6HR MAX TEMP:  75;

BURLINGTON     MOCLDY    66  46  46 E7        29.99S
KENOSHA        PTCLDY    63  44  50 E8        30.00S
6HR MIN TEMP:  63; 6HR MAX TEMP:  78;

FOND DU LAC    PTCLDY    68  46  45 SE9       29.97F
6HR MIN TEMP:  68; 6HR MAX TEMP:  76;

SHEBOYGAN      CLEAR     58  42  55 S8        30.00F
6HR MIN TEMP:  58; 6HR MAX TEMP:  66;

WEST BEND      PTCLDY    63  34  34 SE5       30.00S
JUNEAU         PTCLDY    71  48  44 E7        29.98F
$$

LSZ147-162-180100-
LAKE SUPERIOR

STATION/POSITION TIME  TEMP    WIND        PRES    WAVE
                       AIR SEA DIR/SP/G            HT/PER
                 (UTC) (F)     (DEG/KT/KT) (MB)    (FT/S)
DEVILS ISLAND    2300   60     220/ 15/ 20 1013.7F
PORT WING        2340   69     250/  8/ 11 1014.2S
SAXON HARBOR     2340   69        CALM     1014.2F
$$

LMZ867-665-643>646-180100-
LAKE MICHIGAN

STATION/POSITION TIME  TEMP    WIND        PRES    WAVE
                       AIR SEA DIR/SP/G            HT/PER
                 (UTC) (F)     (DEG/KT/KT) (MB)    (FT/S)
CHAMBERS ISLAND  2300   59     120/  7/ 11 1015.2F
NORTHPORT PIER   2300   55     160/  9/ 12 1015.6F
SISTER BAY       2317   59     150/ 12/ 15   N/A
KEWAUNEE LAKESHO 2300   48     150/  2/  4 1015.2F
SHEBOYGAN LAKESH 2300   42     160/  4/  4 1016.7F
PORT WASHINGTON  2300   45      80/  2/  4 1017.3S
MILWAUKEE LAKESH 2300   46      50/  5/  6   N/A
KENOSHA   LAKESH 2300   50      50/  4/  5 1015.9S
$$

TC  - TEMPERATURE IN CELSIUS
VSB - VISIBILITY IN STATUTE MILES
WCI - WIND CHILL INDEX
HX  - HEAT INDEX



USA.gov is the U.S. government's official web portal to all federal, state and local government web resources and services.